Regional Weather Roundup
Issued by NWS

Home | Current Version | Previous Version | Text Only | Print | Product List | Glossary On
Versions: 1 2 3 4 5 6 7 8 9 10 11 12 13 14 15 16 17 18 19 20 21 22 23 24 25 26 27 28 29 30 31 32 33 34 35 36 37 38 39 40 41 42 43 44 45 46 47 48 49 50
000
ASUS44 KLIX 010910
RWRLA
LOUISIANA WEATHER ROUNDUP
NATIONAL WEATHER SERVICE NEW ORLEANS LA
400 AM CDT TUE SEP 01 2015

NOTE: "FAIR" INDICATES FEW OR NO CLOUDS BELOW 12,000 FEET WITH NO
      SIGNIFICANT WEATHER AND/OR OBSTRUCTIONS TO VISIBILITY.
      SKY/WX - SKY CONDITION AND SIGNIFICANT WEATHER.
      TMP - AIR TEMPERATURE.    DP   - DEWPOINT TEMPERATURE.
      RH  - RELATIVE HUMIDITY.  PRES - PRESSURE.
      HX  - HEAT INDEX.         WCI  - WIND CHILL INDEX.

*  THESE STATIONS ARE NOT NWS OR FAA STATIONS AND ARE NOT UNDER
   NWS QUALITY CONTROL.

LAZ040-048-061>063-065-066-069-011000-
SOUTHEAST LOUISIANA

CITY           SKY/WX    TMP DP  RH WIND       PRES   REMARKS
N.O. AUDUBON   NOT AVBL
N.O. INTL ARPT MOCLDY    77  71  82 CALM      30.03F
N.O. LAKEFRONT PTCLDY    77  69  76 S3        30.04F
N.O. DOWNTOWN* FAIR      81  72  74 CALM      30.05S
RESERVE*       FAIR      74  72  93 CALM      30.04S FOG
SLIDELL        PTCLDY    68  68 100 N3        30.03F
BATON ROUGE    MOCLDY    73  71  93 E3        30.04S
BOOTHVILLE     CLEAR     77  72  84 CALM      30.04S
BELLE CHASSE   PTCLDY    71  69  93 CALM      30.04S FOG
BOGALUSA*      NOT AVBL
GALLIANO*      MOSUNNY   71  70  96 CALM      30.03S
NEW ROADS*     FAIR      73  72  95 CALM      30.03F
GONZALES*      FAIR      73  73 100 CALM      30.03S
HAMMOND*       PTCLDY    72  70  94 CALM      30.06S FOG
HOUMA*         MOCLDY    73  72  95 CALM      30.02F
PORT FOURCHON* SUNNY     82  70  65 CALM      30.03F

$$

LAZ041-044-053-054-011000-
SOUTHWEST LOUISIANA

CITY           SKY/WX    TMP DP  RH WIND       PRES   REMARKS
LAKE CHARLES   CLOUDY    74  70  87 E3        30.02F
LAFAYETTE      CLOUDY    76  73  91 CALM      30.02F
PATTERSON      CLOUDY    75  72  88 E3        30.03F
SALT POINT       N/A     77  75  93 CALM      29.99F
NEW IBERIA     CLOUDY    76  74  93 CALM      30.03S
CHENAULT AIRPK CLOUDY    73  71  93 CALM      30.03F

$$

LAZ027-028-011000-
CENTRAL LOUISIANA

CITY           SKY/WX    TMP DP  RH WIND       PRES   REMARKS
FORT POLK      LGT RAIN  77  73  87 S3        30.03S
ALEXANDRIA INT CLOUDY    75  73  93 CALM      30.03S
ALEXANDRIA     CLOUDY    74  70  87 E3        30.04F

$$

LAZ001-002-011000-
NORTHWEST LOUISIANA

CITY           SKY/WX    TMP DP  RH WIND       PRES   REMARKS
SHREVEPORT     CLOUDY    74  67  78 SE3       30.04S
BARKSDALE AFB  CLOUDY    73  67  84 SE5       30.04S
DTN SHREVEPORT CLOUDY    75  67  76 CALM      30.04S

$$

LAZ014-016-011000-
NORTHEAST LOUISIANA

CITY           SKY/WX    TMP DP  RH WIND       PRES   REMARKS
MONROE         CLOUDY    72  69  90 CALM      30.05F
TALLULAH       PTCLDY    71  68  90 CALM      30.05S

$$




USA.gov is the U.S. government's official web portal to all federal, state and local government web resources and services.